Tracking 31027 objects as of 19-Jul-2025
HD Live streaming from Space Station
objects crossing your sky now

SCOUT A-1 DEB

Track SCOUT A-1 DEB now!
10-day predictions


NORAD ID: 18496
Int'l Code: 1973-081D
Perigee: 867.2 km
Apogee: 1,067.6 km
Inclination: 89.9 °
Period: 104.3 minutes
Semi major axis: 7338 km
RCS: 0.052 m2 (small)
Launch date: October 30, 1973
Source: United States (US)
Launch site: AIR FORCE WESTERN TEST RANGE (AFWTR)

Note: This is SATELLITE DEBRIS
Your satellite tracking list
IRIDIUM 106
Track 1 satellite(s)




NASA's NSSDC Master Catalog

Two Line Element Set (TLE):
1 18496U 73081D   25198.24646374  .00000234  00000-0  19598-3 0  9992
2 18496  89.9344 115.8183 0136596 139.9866 349.8447 13.81024415881102
Source of the keplerian elements: AFSPC